Regional Weather Roundup
Issued by NWS

Home | Current Version | Previous Version | Graphics & Text | Print | Product List | Glossary On
Versions: 1 2 3 4 5 6 7 8 9 10 11 12 13 14 15 16 17 18 19 20 21 22 23 24 25 26 27 28 29 30 31 32 33 34 35 36 37 38 39 40 41 42 43 44 45 46 47 48 49 50
000
ASUS43 KLMK 051002
RWRKY
KENTUCKY REGIONAL WEATHER ROUNDUP
NATIONAL WEATHER SERVICE LOUISVILLE KY
600 AM EDT SAT SEP 05 2015

NOTE "FAIR" INDICATES FEW OR NO CLOUDS BELOW 12,000 FEET
WITH NO SIGNIFICANT WEATHER AND/OR OBSTRUCTIONS TO VISIBILITY.

KYZ001>023-026-027-061>063-070>075-051100-
WESTERN AND SOUTH CENTRAL KENTUCKY

CITY           SKY/WX    TMP DP  RH WIND       PRES   REMARKS
PADUCAH        PTCLDY    68  65  90 CALM      30.04R FOG
HENDERSON      CLEAR     70  64  83 E5        30.06S
OWENSBORO      CLEAR     73  66  78 E5        30.08R
HOPKINSVILLE   CLEAR     69  65  90 CALM      30.06R
BOWLING GREEN  CLEAR     69  66  90 CALM      30.08R
GLASGOW        CLEAR     68  68 100 CALM      30.09R
$$

KYZ024-025-028>034-038-045-046-053-051100-
NORTH CENTRAL KENTUCKY

CITY           SKY/WX    TMP DP  RH WIND       PRES   REMARKS
LOUISVILLE/SDF CLEAR     73  64  73 SE3       30.09R
LOUISVILLE/LOU CLEAR     71  65  81 CALM      30.10R
FORT KNOX      CLEAR     69  63  81 CALM      30.08R
$$

KYZ035>037-039>044-047>052-055>060-089>105-051100-
NORTHEAST KENTUCKY

CITY           SKY/WX    TMP DP  RH WIND       PRES   REMARKS
LEXINGTON      PTCLDY    68  62  81 CALM      30.12R
COVINGTON      MOCLDY    68  65  90 E3        30.12R
FRANKFORT      PTCLDY    65  62  90 CALM      30.10R
$$

KYZ054-064>069-076>088-106>120-051100-
SOUTHEAST KENTUCKY

CITY           SKY/WX    TMP DP  RH WIND       PRES   REMARKS
JACKSON        CLEAR     69  65  86 VRB3      30.13R
LONDON         CLEAR     70  64  81 CALM      30.12R
SOMERSET       NOT AVBL
MIDDLESBORO    PTCLDY    64  64  99 CALM      30.13S
MONTICELLO     SUNNY     64  64 100 CALM      30.13R FOG
$$




USA.gov is the U.S. government's official web portal to all federal, state and local government web resources and services.